Weather History for Lamoni, IA

Change the Weather History Date:

Monday, February 20, 2012

  Actual Average Record
Temperature  
Mean Temperature 39 °F 30 °F  
Max Temperature 48 °F 39 °F 64 °F (2011)
Min Temperature 29 °F 20 °F -7 °F (2008)
Degree Days  
Heating Degree Days 26 35  
Month to date heating degree days 671 758  
Since 1 July heating degree days 3878 4450  
Cooling Degree Days 0 0  
Month to date cooling degree days 0 0  
Year to date cooling degree days 0 0  
Moisture  
Dew Point 29 °F    
Average Humidity 72    
Maximum Humidity 86    
Minimum Humidity 57    
Precipitation  
Precipitation 0.12 in 0.05 in 0.75 in (2014)
Month to date precipitation 1.25 0.95  
Year to date precipitation 1.51  
Sea Level Pressure  
Sea Level Pressure 29.89 in    
Wind  
Wind Speed 14 mph (SE)    
Max Wind Speed 29 mph    
Max Gust Speed 41 mph    
Visibility 10 miles    
Events Rain    
T = Trace of Precipitation, MM = Missing Value Source: NWS Daily Summary

Daily Weather History Graph

Daily Weather History Graph

Search for Another Location

Airport:

Trip Planner

Search our weather history database for the weather conditions in past years. The results will help you decide how hot, cold, wet, or windy it might be!

Date:

Astronomy

Feb. 20, 2012 Rise Set
Actual Time 7:03 AM CST 5:56 PM CST
Civil Twilight 6:35 AM CST 6:23 PM CST
Nautical Twilight 6:03 AM CST 6:55 PM CST
Astronomical Twilight 5:32 AM CST 7:27 PM CST
Moon 6:00 AM CST (2/20) 5:01 PM CST (2/20)
Length of Visible Light 11h 48m
Length of Day
10h 52m
Waning Crescent, 1% of the Moon is Illuminated
Feb 20
Waning Crescent
Feb 21
New
Feb 29
First Quarter
Mar 8
Full
Mar 14
Last Quarter

Hourly Weather History & Observations

Time (CST) Temp. Windchill Dew Point Humidity Pressure Visibility Wind Dir Wind Speed Gust Speed Precip Events Conditions
12:53 AM 30.0 °F 23.2 °F 18.0 °F 61% 30.12 in 10.0 mi SE 6.9 mph - N/A   Clear
1:53 AM 30.0 °F 21.7 °F 18.0 °F 61% 30.11 in 10.0 mi SE 9.2 mph - N/A   Clear
2:53 AM 30.0 °F 21.7 °F 19.0 °F 64% 30.09 in 10.0 mi SE 9.2 mph - N/A   Clear
3:53 AM 30.9 °F 22.2 °F 19.9 °F 64% 30.08 in 10.0 mi SE 10.4 mph - N/A   Clear
4:53 AM 30.9 °F 20.7 °F 19.9 °F 64% 30.06 in 10.0 mi SE 13.8 mph 20.7 mph N/A   Clear
5:53 AM 30.9 °F 22.2 °F 19.9 °F 64% 30.04 in 10.0 mi SE 10.4 mph 18.4 mph N/A   Clear
6:53 AM 30.9 °F 22.8 °F 19.9 °F 64% 30.04 in 10.0 mi SE 9.2 mph - N/A   Clear
7:53 AM 30.9 °F 21.2 °F 21.0 °F 67% 30.04 in 10.0 mi SE 12.7 mph - N/A   Partly Cloudy
8:53 AM 35.1 °F 25.5 °F 23.0 °F 61% 30.02 in 10.0 mi SSE 15.0 mph 24.2 mph N/A   Clear
9:53 AM 37.9 °F 29.6 °F 25.0 °F 60% 30.01 in 10.0 mi SSE 13.8 mph 24.2 mph N/A   Clear
10:53 AM 43.0 °F 34.2 °F 28.9 °F 58% 29.97 in 10.0 mi SE 20.7 mph 26.5 mph N/A   Clear
11:53 AM 45.0 °F 36.4 °F 30.9 °F 58% 29.95 in 10.0 mi SSE 23.0 mph 31.1 mph N/A   Partly Cloudy
12:53 PM 46.0 °F 38.8 °F 32.0 °F 58% 29.90 in 10.0 mi SSE 18.4 mph 28.8 mph N/A   Mostly Cloudy
1:53 PM 46.9 °F - 33.1 °F 59% 29.84 in 10.0 mi SSE 18.4 mph 27.6 mph N/A   Mostly Cloudy
2:53 PM 46.9 °F - 33.1 °F 59% 29.82 in 10.0 mi SSE 18.4 mph 27.6 mph N/A   Overcast
3:53 PM 45.0 °F 36.4 °F 34.0 °F 65% 29.80 in 7.0 mi SSE 23.0 mph 32.2 mph 0.01 in Rain Light Rain
4:53 PM 41.0 °F 33.5 °F 36.0 °F 82% 29.79 in 8.0 mi SSE 13.8 mph 25.3 mph 0.06 in Rain Light Rain
5:18 PM 41.0 °F 33.1 °F 37.4 °F 87% 29.75 in 8.0 mi SSE 15.0 mph 23.0 mph 0.02 in Rain Light Rain
5:53 PM 41.0 °F 34.7 °F 37.0 °F 86% 29.78 in 10.0 mi SSE 10.4 mph 20.7 mph 0.03 in   Overcast
6:53 PM 41.0 °F 34.3 °F 37.0 °F 86% 29.77 in 10.0 mi SSE 11.5 mph - 0.00 in Rain Light Rain
7:53 PM 41.0 °F 34.7 °F 37.0 °F 86% 29.73 in 10.0 mi SE 10.4 mph 17.3 mph 0.00 in Rain Light Rain
8:53 PM 42.1 °F 35.7 °F 37.0 °F 82% 29.69 in 10.0 mi SE 11.5 mph 19.6 mph 0.02 in Rain Light Rain
9:53 PM 43.0 °F 34.8 °F 36.0 °F 76% 29.67 in 10.0 mi SSE 18.4 mph 33.4 mph 0.00 in Rain Light Rain
10:53 PM 39.9 °F 32.5 °F 36.0 °F 86% 29.62 in 10.0 mi SSE 12.7 mph 21.9 mph 0.00 in   Clear
11:53 PM 39.0 °F 31.4 °F 36.0 °F 89% 29.64 in 10.0 mi South 12.7 mph - N/A   Overcast